Weather History for Port Isabel, TX

Change the Weather History Date:

Wednesday, March 5, 2014

  Actual Average Record
Temperature  
Mean Temperature 54 °F -  
Max Temperature 62 °F - - ()
Min Temperature 46 °F - - ()
Degree Days  
Heating Degree Days 11    
Growing Degree Days 4 (Base 50)    
Moisture  
Dew Point 53 °F    
Average Humidity 90    
Maximum Humidity 97    
Minimum Humidity 82    
Precipitation  
Precipitation 0.01 in - - ()
Sea Level Pressure  
Sea Level Pressure 29.99 in    
Wind  
Wind Speed 10 mph (NNW)    
Max Wind Speed 15 mph    
Max Gust Speed -    
Visibility 5 miles    
Events Rain    
T = Trace of Precipitation, MM = Missing Value Source: NWS Daily Summary

Daily Weather History Graph

Daily Weather History Graph

Search for Another Location

Airport:

Trip Planner

Search our weather history database for the weather conditions in past years. The results will help you decide how hot, cold, wet, or windy it might be!

Date:

Astronomy

Mar. 05, 2014 Rise Set
Actual Time 6:48 AM CST 6:33 PM CST
Civil Twilight 6:25 AM CST 6:56 PM CST
Nautical Twilight 5:59 AM CST 7:22 PM CST
Astronomical Twilight 5:32 AM CST 7:49 PM CST
Moon 9:44 AM CST (3/5) 11:11 PM CST (3/5)
Length of Visible Light 12h 30m
Length of Day
11h 44m
Waxing Crescent, 23% of the Moon is Illuminated
Mar 5
Waxing Crescent
Mar 8
First Quarter
Mar 16
Full
Mar 23
Last Quarter
Mar 30
New

Hourly Weather History & Observations

Time (CST) Temp. Dew Point Humidity Pressure Visibility Wind Dir Wind Speed Gust Speed Precip Events Conditions
12:53 AM 46.9 °F 45.0 °F 93% 30.02 in 7.0 mi NNW 10.4 mph - N/A   Overcast
1:37 AM 48.2 °F 46.4 °F 93% 30.01 in 6.0 mi NNW 9.2 mph - 0.00 in Rain Light Rain
1:53 AM 48.0 °F 46.0 °F 93% 30.00 in 5.0 mi NNW 9.2 mph - 0.00 in   Overcast
2:05 AM 48.2 °F 46.4 °F 93% 30.00 in 6.0 mi NNW 9.2 mph - 0.00 in   Overcast
2:26 AM 48.2 °F 46.4 °F 93% 29.99 in 4.0 mi NNW 9.2 mph - 0.00 in   Overcast
2:53 AM 48.0 °F 46.9 °F 96% 29.99 in 4.0 mi NNW 9.2 mph - 0.00 in   Overcast
3:04 AM 48.2 °F 46.4 °F 93% 29.99 in 4.0 mi NNW 10.4 mph - N/A   Overcast
3:53 AM 48.9 °F 48.0 °F 97% 29.96 in 5.0 mi North 9.2 mph - 0.01 in   Overcast
4:53 AM 50.0 °F 48.9 °F 96% 29.96 in 5.0 mi NNW 11.5 mph - 0.00 in   Overcast
5:53 AM 50.0 °F 48.9 °F 96% 29.97 in 4.0 mi NNW 10.4 mph - N/A   Overcast
6:53 AM 51.1 °F 48.9 °F 92% 29.97 in 4.0 mi North 8.1 mph - N/A   Overcast
7:14 AM 51.8 °F 50.0 °F 94% 29.97 in 2.5 mi North 9.2 mph - N/A   Overcast
7:53 AM 52.0 °F 50.0 °F 93% 29.99 in 2.5 mi North 11.5 mph - N/A   Overcast
8:53 AM 54.0 °F 52.0 °F 93% 30.00 in 2.5 mi North 10.4 mph - N/A   Overcast
9:03 AM 55.4 °F 53.6 °F 94% 30.00 in 3.0 mi NNW 9.2 mph - N/A   Overcast
9:53 AM 55.9 °F 54.0 °F 93% 30.00 in 4.0 mi NNW 9.2 mph - N/A   Overcast
10:27 AM 60.8 °F 57.2 °F 88% 29.99 in 6.0 mi North 10.4 mph - N/A   Overcast
10:53 AM 62.1 °F 57.9 °F 86% 29.99 in 8.0 mi North 9.2 mph - N/A   Overcast
11:42 AM 60.8 °F 55.4 °F 82% 29.99 in 7.0 mi NNW 9.2 mph - N/A   Overcast
11:53 AM 60.1 °F 55.9 °F 86% 29.98 in 7.0 mi NW 10.4 mph - N/A   Overcast
12:29 PM 60.8 °F 55.4 °F 82% 29.97 in 7.0 mi NW 12.7 mph - N/A   Overcast
12:36 PM 60.8 °F 55.4 °F 82% 29.97 in 7.0 mi NW 12.7 mph - N/A   Overcast
12:39 PM 60.8 °F 55.4 °F 82% 29.97 in 7.0 mi NW 13.8 mph - N/A   Overcast
12:53 PM 61.0 °F 55.9 °F 83% 29.97 in 6.0 mi NW 15.0 mph - N/A   Haze
1:53 PM 59.0 °F 55.0 °F 87% 29.95 in 5.0 mi NNW 13.8 mph - N/A   Overcast
2:53 PM 57.0 °F 54.0 °F 89% 29.94 in 7.0 mi NNW 11.5 mph - N/A   Overcast
3:53 PM 60.1 °F 55.0 °F 83% 29.93 in 7.0 mi North 10.4 mph - N/A   Overcast
4:27 PM 60.8 °F 55.4 °F 82% 29.93 in 6.0 mi North 10.4 mph - N/A   Overcast
4:53 PM 60.1 °F 55.9 °F 86% 29.93 in 5.0 mi North 12.7 mph - N/A   Overcast
5:53 PM 59.0 °F 55.9 °F 90% 29.94 in 4.0 mi North 12.7 mph - N/A   Overcast
6:53 PM 57.9 °F 55.0 °F 90% 29.98 in 5.0 mi North 12.7 mph - N/A   Overcast
7:53 PM 57.9 °F 55.9 °F 93% 30.00 in 4.0 mi North 9.2 mph - N/A   Overcast
8:01 PM 59.0 °F 55.4 °F 88% 29.99 in 4.0 mi North 9.2 mph - N/A   Overcast
8:24 PM 59.0 °F 55.4 °F 88% 30.00 in 4.0 mi North 8.1 mph - N/A   Mostly Cloudy
8:53 PM 60.1 °F 57.0 °F 90% 30.01 in 4.0 mi North 5.8 mph - N/A   Overcast
9:53 PM 61.0 °F 59.0 °F 93% 30.04 in 5.0 mi North 5.8 mph - N/A   Overcast
10:48 PM 60.8 °F 57.2 °F 88% 30.06 in 4.0 mi NNW 8.1 mph - N/A   Overcast
10:53 PM 60.1 °F 57.0 °F 90% 30.06 in 4.0 mi NNW 6.9 mph - N/A   Overcast
11:38 PM 60.8 °F 57.2 °F 88% 30.06 in 4.0 mi NNW 6.9 mph - N/A   Overcast
11:53 PM 59.0 °F 57.0 °F 93% 30.06 in 4.0 mi NW 4.6 mph - N/A   Mostly Cloudy